Montauban, France

4:14 AM CET on December 09, 2016 (GMT +0100)
Blagnac

Weather History for LFBO - January, 2014

Change the Weather History Date:

Friday, January 17, 2014

  Actual Average Record
Temperature  
Mean Temperature 44 °F -  
Max Temperature 56 °F 48 °F 60 °F (2007)
Min Temperature 32 °F 35 °F 26 °F (2002)
Degree Days  
Heating Degree Days 21    
Moisture  
Dew Point 39 °F    
Average Humidity 86    
Maximum Humidity 100    
Minimum Humidity 51    
Precipitation  
Precipitation 0.00 in 0.07 in - ()
Sea Level Pressure  
Sea Level Pressure 29.59 in    
Wind  
Wind Speed 4 mph ()    
Max Wind Speed 14 mph    
Max Gust Speed -    
Visibility 4.9 miles    
Events Fog    
Averages and records for this station are not official NWS values.
T = Trace of Precipitation, MM = Missing Value Source: Averaged Metar Reports

Daily Weather History Graph

Daily Weather History Graph

Search for Another Location

Airport or City:

Trip Planner

Search our weather history database for the weather conditions in past years. The results will help you decide how hot, cold, wet, or windy it might be!

Date:

Astronomy

Jan. 17, 2014 Rise Set
Actual Time 8:23 AM CET 5:45 PM CET
Civil Twilight 7:52 AM CET 6:17 PM CET
Nautical Twilight 7:16 AM CET 6:52 PM CET
Astronomical Twilight 6:42 AM CET 7:26 PM CET
Moon 7:22 PM CET (1/17) 8:39 AM CET (1/17)
Length of Visible Light 10h 25m
Length of Day
9h 21m
Full, 99% of the Moon is Illuminated
Jan 17
Full
Jan 24
Last Quarter
Jan 30
New
Feb 6
First Quarter
Feb 15
Full

Hourly Weather History & Observations

Time (CET) Temp. Windchill Dew Point Humidity Pressure Visibility Wind Dir Wind Speed Gust Speed Precip Events Conditions
12:00 AM 41 °F - 40 °F 97% 29.71 in 0 mi SSE 2.3 mph - - Fog Partial Fog
12:00 AM 41.0 °F - 41.0 °F 100% 29.68 in 1.8 mi SSE 2.3 mph - N/A   Mist
12:30 AM 39.2 °F 37.0 °F 39.2 °F 100% 29.68 in 0.6 mi SE 3.5 mph - N/A Fog Patches of Fog
1:00 AM 41 °F - 41 °F 99% 29.69 in 0 mi SSE 2.3 mph - - Fog Partial Fog
1:00 AM 41.0 °F - 41.0 °F 100% 29.65 in 0.6 mi SSE 2.3 mph - N/A Fog Fog
1:30 AM 41.0 °F - 41.0 °F 100% 29.65 in 0.7 mi Calm Calm - N/A Fog Patches of Fog
2:00 AM 38 °F - 37 °F 97% 29.68 in 0 mi South 3.5 mph - - Fog Partial Fog
2:00 AM 39.2 °F 37.0 °F 37.4 °F 93% 29.65 in 0.5 mi South 3.5 mph - N/A Fog Fog
2:30 AM 39.2 °F 37.0 °F 37.4 °F 93% 29.65 in 0.1 mi SSE 3.5 mph - N/A Fog Fog
3:00 AM 40 °F - 39 °F 96% 29.67 in 0 mi ENE 2.3 mph - - Fog Patches of Fog
3:00 AM 39.2 °F - 39.2 °F 100% 29.65 in 0.1 mi Variable 2.3 mph - N/A Fog Fog
3:30 AM 39.2 °F 35.0 °F 39.2 °F 100% 29.62 in 1.1 mi ESE 5.8 mph - N/A Fog Patches of Fog
4:00 AM 37 °F - 37 °F 99% 29.66 in 0 mi SSE 3.5 mph - - Fog Partial Fog
4:00 AM 37.4 °F 34.9 °F 37.4 °F 100% 29.62 in 1.4 mi SSE 3.5 mph - N/A Fog Patches of Fog
4:30 AM 35.6 °F 32.8 °F 35.6 °F 100% 29.62 in 0.2 mi SSW 3.5 mph - N/A Fog Fog
5:00 AM 35 °F - 35 °F 98% 29.65 in 0 mi SSW 2.3 mph - - Fog Patches of Fog
5:00 AM 35.6 °F - 35.6 °F 100% 29.62 in 0.2 mi SSW 2.3 mph - N/A Fog Fog
5:30 AM 35.6 °F - 35.6 °F 100% 29.62 in 0.1 mi Variable 2.3 mph - N/A Fog Fog
6:00 AM 35 °F - 34 °F 93% 29.65 in 0 mi SSE 3.5 mph - - Fog Heavy Fog
6:00 AM 33.8 °F 30.8 °F 33.8 °F 100% 29.62 in 0.1 mi SSE 3.5 mph - N/A Fog Fog
6:30 AM 35.6 °F - 35.6 °F 100% 29.62 in 0.2 mi SSE 1.2 mph - N/A Fog Fog
7:00 AM 35 °F - 34 °F 96% 29.65 in 0 mi SSE 1.2 mph - - Fog Light Fog
7:00 AM 35.6 °F - 33.8 °F 93% 29.62 in 0.2 mi Calm Calm - N/A Fog Fog
7:30 AM 33.8 °F - 33.8 °F 100% 29.59 in 0.6 mi SSE 2.3 mph - N/A Fog Patches of Fog
8:00 AM 32 °F - 32 °F 99% 29.65 in 2 mi South 3.5 mph - -   Mist
8:00 AM 32.0 °F 28.7 °F 32.0 °F 100% 29.59 in 3.1 mi South 3.5 mph - N/A   Mist
8:30 AM 32.0 °F - 32.0 °F 100% 29.62 in 5.6 mi South 2.3 mph - N/A   Partly Cloudy
9:00 AM 33 °F - 32 °F 95% 29.65 in 4 mi Calm Calm - -   Mostly Cloudy
9:00 AM 32.0 °F - 32.0 °F 100% 29.62 in 5.6 mi Calm Calm - N/A   Mostly Cloudy
9:30 AM 35.6 °F - 33.8 °F 93% 29.62 in 5.0 mi Calm Calm - N/A   Mostly Cloudy
10:00 AM 36 °F - 36 °F 98% 29.66 in 5 mi ESE 2.3 mph - -   Mostly Cloudy
10:00 AM 35.6 °F - 35.6 °F 100% 29.62 in 5.0 mi ESE 2.3 mph - N/A   Scattered Clouds
10:30 AM 37.4 °F - 37.4 °F 100% 29.62 in 6.2 mi Variable 1.2 mph - N/A   Scattered Clouds
11:00 AM 39 °F - 38 °F 97% 29.65 in 0 mi Calm Calm - - Fog Patches of Fog
11:00 AM 39.2 °F - 39.2 °F 100% 29.62 in 4.3 mi Calm Calm - N/A Fog Patches of Fog
11:30 AM 42.8 °F - 41.0 °F 93% 29.62 in 4.3 mi Calm Calm - N/A   Partly Cloudy
12:00 PM 47 °F - 44 °F 84% 29.62 in 6 mi ESE 4.6 mph - -   Clear
12:00 PM 46.4 °F 44.3 °F 44.6 °F 93% 29.59 in 6.2 mi ESE 4.6 mph - N/A   Partly Cloudy
12:30 PM 50.0 °F - 42.8 °F 76% 29.59 in 6.2 mi SE 8.1 mph - N/A   Unknown
1:00 PM 53 °F - 43 °F 59% 29.58 in 9 mi SE 11.5 mph - -   Clear
1:00 PM 53.6 °F - 42.8 °F 67% 29.56 in 6.2 mi SE 11.5 mph - N/A   Unknown
1:30 PM 53.6 °F - 42.8 °F 67% 29.56 in 6.2 mi SE 12.7 mph - N/A   Unknown
2:00 PM 55 °F - 42 °F 52% 29.55 in 12 mi SE 10.4 mph - -   Clear
2:00 PM 55.4 °F - 42.8 °F 63% 29.53 in 6.2 mi SE 10.4 mph - N/A   Unknown
2:30 PM 55.4 °F - 42.8 °F 63% 29.53 in 6.2 mi SE 11.5 mph - N/A   Unknown
3:00 PM 56 °F - 43 °F 51% 29.53 in 16 mi SE 12.7 mph - -   Clear
3:00 PM 55.4 °F - 42.8 °F 63% 29.50 in 6.2 mi SE 12.7 mph - N/A   Unknown
3:30 PM 55.4 °F - 44.6 °F 67% 29.50 in 6.2 mi SE 10.4 mph - N/A   Partly Cloudy
4:00 PM 55 °F - 43 °F 54% 29.52 in 19 mi SE 12.7 mph - -   Clear
4:00 PM 55.4 °F - 42.8 °F 63% 29.50 in 6.2 mi SE 12.7 mph - N/A   Partly Cloudy
4:30 PM 53.6 °F - 42.8 °F 67% 29.50 in 6.2 mi SE 11.5 mph - N/A   Unknown
5:00 PM 52 °F - 41 °F 55% 29.52 in 19 mi SE 10.4 mph - -   Clear
5:00 PM 51.8 °F - 41.0 °F 67% 29.50 in 6.2 mi SE 10.4 mph - N/A   Unknown
5:30 PM 50.0 °F - 42.8 °F 76% 29.50 in 6.2 mi SE 11.5 mph - N/A   Unknown
6:00 PM 50.0 °F - 42.8 °F 76% 29.50 in 6.2 mi SSE 13.8 mph - N/A   Unknown
6:30 PM 48.2 °F - 42.8 °F 82% 29.50 in 6.2 mi SE 12.7 mph - N/A   Unknown
7:00 PM 48 °F - 42 °F 74% 29.54 in 16 mi SSE 12.7 mph - -   Scattered Clouds
7:00 PM 48.2 °F - 42.8 °F 82% 29.50 in 6.2 mi SSE 12.7 mph - N/A   Unknown
7:30 PM 48.2 °F - 41.0 °F 76% 29.53 in 6.2 mi SE 12.7 mph - N/A   Partly Cloudy
8:00 PM 47 °F - 41 °F 74% 29.55 in 15 mi SE 10.4 mph - -   Clear
8:00 PM 46.4 °F 41.5 °F 41.0 °F 81% 29.53 in 6.2 mi SE 10.4 mph - N/A   Unknown
8:30 PM 46.4 °F 41.9 °F 41.0 °F 81% 29.53 in 6.2 mi SE 9.2 mph - N/A   Unknown
9:00 PM 46 °F - 41 °F 78% 29.54 in 12 mi ESE 8.1 mph - -   Clear
9:00 PM 46.4 °F 42.4 °F 41.0 °F 81% 29.50 in 6.2 mi ESE 8.1 mph - N/A   Unknown
9:30 PM 44.6 °F 43.1 °F 41.0 °F 87% 29.53 in 6.2 mi South 3.5 mph - N/A   Unknown
10:00 PM 43 °F - 39 °F 80% 29.56 in 9 mi SE 5.8 mph - -   Clear
10:00 PM 42.8 °F 39.3 °F 39.2 °F 87% 29.53 in 6.2 mi SE 5.8 mph - N/A   Unknown
10:30 PM 42.8 °F 41.1 °F 39.2 °F 87% 29.53 in 6.2 mi SE 3.5 mph - N/A   Unknown
11:00 PM 42 °F - 40 °F 88% 29.56 in 6 mi SE 3.5 mph - -   Clear
11:00 PM 41.0 °F 39.0 °F 39.2 °F 93% 29.53 in 6.2 mi SE 3.5 mph - N/A   Partly Cloudy
11:30 PM 41.0 °F - 39.2 °F 93% 29.53 in 6.2 mi Calm Calm - N/A   Unknown